Location: *
(43.9905°S, 176.4941°W)
Time: 04:54:37
(UTC+00:00)

Cosmos 2184 Rocket - Pass Details

Date: 08 December 2019
Orbit: 958 x 1003 km, 82.9° (Epoch: 23 January)

Event Time Altitude Azimuth Distance (km) Brightness Sun altitude
Rises 08:46:06 0° 184° (S) 3,727 8.0 -12.6°
Reaches altitude 10° 08:48:43 10° 179° (S) 2,779 7.1 -12.9°
Maximum altitude 08:54:56 52° 103° (ESE) 1,227 4.4 -13.6°
Enters shadow 08:59:23 19° 33° (NNE) 2,165 5.2 -14.1°
